Other Public Products
Issued by NWS Grand Forks, ND

Home | Current Version | Previous Version | Graphics & Text | Print | Product List | Glossary On
Versions: 1 2 3 4 5 6 7 8 9 10 11 12 13 14 15 16 17 18 19 20 21 22 23 24 25 26 27 28 29 30 31 32 33 34 35 36 37 38 39 40 41 42 43 44 45 46 47 48 49 50
957
FPUS83 KFGF 101910
OPUFGF
PRAIRIE TO PINES WEATHER ROUNDUP
NATIONAL WEATHER SERVICE EASTERN NORTH DAKOTA/GRAND FORKS ND
100 PM CST WED FEB 10 2016

 **SATELLITE DATA USED TO AUGMENT SKY COVER AT AUTOMATED STATIONS**
 *****  WEATHER ACROSS EASTERN NORTH DAKOTA  *****

CITY           SKY/WX    TMP DP  RH WIND       PRES   REMARKS
GRAND FORKS    CLOUDY     9  -1  64 E8        30.16F WCI  -3
GRAND FORKS AF NOT AVBL
GRAND CITY NWS NOT AVBL
BUXTON           N/A     13   3  66 E5          N/A  WCI   5
DEVILS LAKE    FLURRIES   7   1  76 E15       30.09R WCI -10
FARGO          CLOUDY    13   3  64 CALM      30.12S
WAHPETON ARPT  CLOUDY    10   3  72 SE6       30.11S WCI   1
$$

 *****  WEATHER ACROSS CENTRAL AND WESTERN NORTH DAKOTA  *****

CITY           SKY/WX    TMP DP  RH WIND       PRES   REMARKS
JAMESTOWN      CLOUDY     9   4  80 E13       30.03R WCI  -7
BISMARCK       CLOUDY    25  15  66 NE9       29.99R WCI  15
MINOT          CLOUDY    18   8  65 N8        30.04R WCI   8
MINOT AFB      FRZ DRZL  16   9  73 NE8       30.05R WCI   5
GARRISON         N/A     22  15  75 N7        29.99R WCI  13
WILLISTON      CLOUDY    32  26  78 N10       30.04R WCI  24
DICKINSON      CLOUDY    38  29  70 N17       29.93R
HETTINGER      SUNNY     48  30  49 N18G30    29.94R
$$

 *****  OTHER OBSERVATIONS NORTHEAST NORTH DAKOTA  *****

CITY           SKY/WX    TMP DP  RH WIND       PRES   REMARKS
WALHALLA       FAIR       7   0  72 NE5       30.20R WCI  -2
LANGDON        CLOUDY     7   0  72 E10       30.11R WCI  -8
CAVALIER       FAIR       7   0  72 E5        30.20S WCI  -2
GRAFTON        FAIR       7   0  72 NE5       30.20S WCI  -2
CANDO          NOT AVBL
FORT TOTTEN      N/A      7   1  78 E7        29.95S WCI  -5
ROLLA          LGT SNOW   5   0  78 E7        30.09R WCI  -7
RUGBY          CLOUDY     7   5  92 E13       30.08R WCI  -9
 ***** THE ABOVE OBSERVATIONS ARE NON NWS ARE NOT QUALITY
        CONTROLLED AND MAY MIS-REPORT RAIN FOR SNOW...
$$

 *****  OTHER OBSERVATIONS SOUTHEAST NORTH DAKOTA *****

CITY           SKY/WX    TMP DP  RH WIND       PRES   REMARKS
COOPERSTOWN    NOT AVBL
VALLEY CITY    CLOUDY     7   5  92 E14       30.08R WCI -10
OAKES          CLOUDY    10   7  85 E20       30.03R WCI  -8
GWINNER        CLOUDY    12   9  85 E14       30.06S WCI  -3
SHEYENNE NWR     N/A     10   4  76 E9        29.95S WCI  -3
BUFFALO          N/A      9   3  76 E10         N/A  WCI  -5
WYNDMERE       NOT AVBL
 ***** THE ABOVE OBSERVATIONS ARE NON NWS ARE NOT QUALITY
       CONTROLLED AND MAY MIS-REPORT RAIN FOR SNOW...
$$

  *****  WEATHER ACROSS NORTHERN MINNESOTA  *****

CITY           SKY/WX    TMP DP  RH WIND       PRES   REMARKS
FLAG ISLAND    CLOUDY    -6 -11  77 CALM      30.19S
WARROAD        CLOUDY    -4  -9  77 NE5       30.19S WCI -15
ROSEAU         CLOUDY     0  -8  71 NE8       30.18S WCI -15
HALLOCK        CLOUDY     7  -4  61 NE5       30.19S WCI  -2
THF RVR FALLS  CLOUDY     5   0  78 NE7       30.15S WCI  -7
HALSTAD        NOT AVBL
FOSSTON          N/A      9  -2  61 NE6       30.11F WCI  -1
BAUDETTE       CLOUDY    -4 -13  65 SW3       30.15F
WASKISH        CLOUDY     1  -8  66 CALM      30.14F
CROOKSTON      CLOUDY     9   0  66 CALM      30.17S
$$
  *****  WEATHER ACROSS CENTRAL AND WEST MINNESOTA  *****

CITY           SKY/WX    TMP DP  RH WIND       PRES   REMARKS
BEMIDJI        CLOUDY     4  -6  62 SE3       30.09F
PARK RAPIDS    CLOUDY     8  -7  50 NE5       30.07F WCI   0
WADENA         CLOUDY     7  -2  66 CALM      30.07F
DETROIT LAKES  CLOUDY    10   0  61 S3        30.08F
MOORHEAD       CLOUDY    12   1  62 CALM      30.13S
FERGUS FALLS   CLOUDY    10   0  61 SE3       30.12F
ELBOW LAKE     LGT SNOW  10   1  64 S5        30.08F WCI   2
MORRIS MN      CLOUDY    10   3  72 E7        30.07F WCI   0
STAPLES        CLOUDY     7  -8  51 CALM      30.08F
WHEATON        LGT SNOW  10   7  85 E9        30.10F WCI  -2
$$
  *****  WEATHER ELSEWHERE ACROSS MINNESOTA  *****

CITY           SKY/WX    TMP DP  RH WIND       PRES   REMARKS
DULUTH         MOSUNNY    7  -9  48 N7        30.06S WCI  -5
INTRNTL FALLS  CLOUDY    -2 -13  59 N7        30.15F WCI -15
ELY            SUNNY      0  -9  65 NE6       30.07F WCI -12
CLOQUET        SUNNY      5  -9  51 CALM      30.07F
BRAINERD       CLOUDY     5  -8  55 NE6       30.09F WCI  -6
HIBBING        MOSUNNY    2  -9  60 NW5       30.08F WCI  -8
ALEXANDRIA     CLOUDY     9  -2  61 E8        30.06F WCI  -3
SAINT CLOUD    CLOUDY     9  -4  55 VRB7      30.11S WCI  -2
MINNEAPOLIS    CLOUDY    10  -4  53 NW6       30.11F WCI   0
$$

  *****  WEATHER ACROSS SOUTH DAKOTA  *****

CITY           SKY/WX    TMP DP  RH WIND       PRES   REMARKS
SIOUX FALLS    CLOUDY    18  13  80 E15       29.96S WCI   4
BROOKINGS      LGT SNOW  13   9  84 E10       29.97S FOG     WCI   0
WATERTOWN      CLOUDY    13   6  74 E10       29.97S WCI   0
HURON          CLOUDY    23  18  81 SE13      29.94S WCI  11
SISSETON         N/A      9   5  84 SE10      30.06S WCI  -5
ABERDEEN       CLOUDY    19  13  77 E9        29.99R HAZE    WCI   8
MITCHELL       SUNNY     30  21  69 SE14      29.93F WCI  19
PIERRE         SUNNY     45  29  53 N12       29.86S
MOBRIDGE       SUNNY     36  25  64 VRB5      29.88R
RAPID CITY     SUNNY     63  19  18 NW35G41   29.91R
$$

  *****  SOME WEATHER IN NEARBY STATES *****

CITY           SKY/WX    TMP DP  RH WIND       PRES   REMARKS
GLASGOW MT     NOT AVBL
GREAT FALLS MT NOT AVBL
CHEYENNE WY    SUNNY     55  19  24 W26G37    30.13F
SCOTTSBLUFF NE SUNNY     59  25  27 W23G29    30.02F
OMAHA NE       MOSUNNY   34  22  61 S8        29.92F
DES MOINES IA  FLURRIES  19  12  74 E8        30.04F WCI   9
DAVENPORT IA   MOSUNNY   17   3  54 W13       30.07F WCI   4
CHICAGO IL     PTSUNNY   15   3  59 W13       30.01F WCI   1
EAU CLAIRE WI  SUNNY      7  -4  60 N7        30.09S WCI  -5
LA CROSSE WI   SUNNY      9  -3  58 W9        30.09F WCI  -4
$$

  *****  SOME NATIONAL WEATHER *****

CITY           SKY/WX    TMP DP  RH WIND       PRES   REMARKS
LA GUARDIA NY  CLOUDY    39  22  50 W14       29.60S
RALEIGH NC     PTSUNNY   39  15  37 W9        29.86F
ATLANTA GA     MOSUNNY   36  10  34 W15G26    30.09F
NEW ORLEANS LA MOSUNNY   54  21  27 NW9       30.34F
OKLAHOMA CITY  SUNNY     65  30  27 SW21G28   30.08F
ALBUQUERQUE NM SUNNY     53  20  27 CALM      30.42F
SALT LAKE CITY FOG       30  28  92 N8        30.49F VSB 1/2 WCI  22
LOS ANGELES CA MOSUNNY   81  28  14 VRB5      30.15F
BOISE ID       NOT AVBL
SEATTLE WA     RAIN      49  46  90 S6        30.22R
$$

*** WEATHER ACROSS MANITOBA...SASKATCHEWAN AND ONTARIO ***
                ***ONTARIO***

CITY           SKY/WX    TMP DP  RH WIND       PRES   REMARKS
GERALDTON      PTSUNNY   -6 -15  65 NW12      29.99F WCI -24
THUNDER BAY    MOSUNNY    3  -9  55 NW10      30.11F WCI -12
SIOUX LOOKOUT  MOSUNNY   -6 -15  65 NW3       30.13F
TORONTO        PTSUNNY   25  12  58 NW16      29.63S WCI  12
BIG TROUT LK   SUNNY    -11 -20  64 W14       30.13S WCI -33
PICKLE LAKE    CRYSTALS  -6 -17  59 NW7       30.07S WCI -20
DRYDEN         SUNNY     -2 -13  60 W5        30.13F WCI -12
KENORA         MOSUNNY   -4 -13  65 VRB3      30.15F
$$
                *** MANITOBA***

CITY           SKY/WX    TMP DP  RH WIND       PRES   REMARKS
BRANDON        LGT SNOW   5   0  78 E10       30.16R DRFTSNOWWCI -10
DAUPHIN        MOSUNNY    7   1  78 NE3       30.20R
ISLAND LAKE    NOT AVBL
PILOT MOUND      N/A      3   0  85 E7          N/A  WCI  -9
THE PAS        FLURRIES   1  -6  71 N7        30.24R WCI -11
THOMPSON       FLURRIES  -2 -11  65 N6        30.27S WCI -14
WINNIPEG       CLOUDY     3  -8  60 E3        30.24R
LYNN LAKE      MOSUNNY   -4 -11  71 N9        30.27R WCI -20
CHURCHILL      CRYSTALS -18 -24  76 NW20      30.24S BLWGSNOWWCI -46
GILLAM         CRYSTALS -17 -22  76 W9        30.25S WCI -36
$$
                ***SASKATCHEWAN***

CITY           SKY/WX    TMP DP  RH WIND       PRES   REMARKS
ESTEVAN        CLOUDY    18  14  86 NW5       30.06R WCI  11
KINDERSLEY     CLOUDY    32  27  80 NE9       30.14R WCI  24
LLOYDMINSTER   CLOUDY    25  21  86 NE10G17   30.17F WCI  15
PRINCE ALBERT  CLOUDY    18  12  79 N10       30.20R WCI   6
REGINA         CLOUDY    23  19  86 N16       30.07R WCI  10
YORKTON        FLURRIES  10   5  79 SE6       30.12R WCC1F1C2F2C3F3C4F4C5F5C6F6C7F7C8F8C9F9CaFaCbFbCcFcCdFdCe!



USA.gov is the U.S. government's official web portal to all federal, state and local government web resources and services.